Weather History for Litchfield, MN

Change the Weather History Date:

Saturday, April 27, 2013

  Actual Average Record
Temperature  
Mean Temperature 56 °F -  
Max Temperature 75 °F 65 °F 85 °F (1952)
Min Temperature 37 °F 41 °F 27 °F (1961)
Degree Days  
Heating Degree Days 9    
Growing Degree Days 6 (Base 50)    
Moisture  
Dew Point 34 °F    
Average Humidity 48    
Maximum Humidity 93    
Minimum Humidity 18    
Precipitation  
Precipitation 0.00 in - - ()
Sea Level Pressure  
Sea Level Pressure 30.03 in    
Wind  
Wind Speed 2 mph (South)    
Max Wind Speed 12 mph    
Max Gust Speed -    
Visibility 10 miles    
Events      
Averages and records for this station are not official NWS values.
T = Trace of Precipitation, MM = Missing Value Source: NWS Daily Summary

Daily Weather History Graph

Daily Weather History Graph

Search for Another Location

Airport:

Trip Planner

Search our weather history database for the weather conditions in past years. The results will help you decide how hot, cold, wet, or windy it might be!

Date:

Astronomy

Apr. 27, 2013 Rise Set
Actual Time 6:12 AM CDT 8:19 PM CDT
Civil Twilight 5:40 AM CDT 8:51 PM CDT
Nautical Twilight 5:01 AM CDT 9:30 PM CDT
Astronomical Twilight 4:17 AM CDT 10:14 PM CDT
Moon 10:54 PM CDT (4/27) 7:27 AM CDT (4/27)
Length of Visible Light 15h 10m
Length of Day
14h 06m
Waning Gibbous, 95% of the Moon is Illuminated
Apr 27
Waning Gibbous
May 2
Last Quarter
May 9
New
May 17
First Quarter
May 24
Full

Hourly Weather History & Observations

Time (CDT) Temp. Windchill Dew Point Humidity Pressure Visibility Wind Dir Wind Speed Gust Speed Precip Events Conditions
12:13 AM 44.6 °F - 35.6 °F 71% 30.15 in 10.0 mi Calm Calm - N/A   Clear
12:32 AM 42.8 °F - 37.4 °F 81% 30.15 in 10.0 mi Calm Calm - N/A   Clear
12:53 AM 42.8 °F - 37.4 °F 81% 30.15 in 10.0 mi Calm Calm - N/A   Clear
1:13 AM 41.0 °F - 37.4 °F 87% 30.15 in 10.0 mi Calm Calm - N/A   Clear
1:32 AM 44.6 °F - 37.4 °F 76% 30.15 in 10.0 mi Calm Calm - N/A   Clear
1:53 AM 41.0 °F - 35.6 °F 81% 30.14 in 10.0 mi Calm Calm - N/A   Clear
2:12 AM 39.2 °F - 37.4 °F 93% 30.14 in 10.0 mi Calm Calm - N/A   Clear
2:33 AM 44.6 °F - 35.6 °F 71% 30.13 in 10.0 mi Calm Calm - N/A   Clear
2:53 AM 39.2 °F - 35.6 °F 87% 30.13 in 10.0 mi Calm Calm - N/A   Clear
3:13 AM 39.2 °F - 35.6 °F 87% 30.13 in 10.0 mi Calm Calm - N/A   Clear
3:33 AM 39.2 °F - 35.6 °F 87% 30.12 in 10.0 mi Calm Calm - N/A   Clear
3:53 AM 39.2 °F - 35.6 °F 87% 30.12 in 10.0 mi Calm Calm - N/A   Clear
4:13 AM 37.4 °F - 33.8 °F 87% 30.12 in 10.0 mi Calm Calm - N/A   Clear
4:33 AM 37.4 °F - 35.6 °F 93% 30.11 in 10.0 mi Calm Calm - N/A   Clear
4:53 AM 42.8 °F 41.1 °F 35.6 °F 76% 30.11 in 10.0 mi South 3.5 mph - N/A   Clear
5:12 AM 42.8 °F - 35.6 °F 76% 30.10 in 10.0 mi Calm Calm - N/A   Clear
5:33 AM 39.2 °F - 35.6 °F 87% 30.10 in 10.0 mi Calm Calm - N/A   Clear
5:53 AM 39.2 °F - 35.6 °F 87% 30.10 in 10.0 mi Calm Calm - N/A   Clear
6:12 AM 39.2 °F - 35.6 °F 87% 30.10 in 10.0 mi Calm Calm - N/A   Clear
6:33 AM 39.2 °F - 35.6 °F 87% 30.10 in 10.0 mi Calm Calm - N/A   Clear
6:53 AM 39.2 °F - 35.6 °F 87% 30.10 in 10.0 mi Calm Calm - N/A   Clear
7:12 AM 42.8 °F - 35.6 °F 76% 30.10 in 10.0 mi Calm Calm - N/A   Clear
7:33 AM 46.4 °F - 37.4 °F 71% 30.10 in 10.0 mi Calm Calm - N/A   Clear
7:52 AM 48.2 °F - 39.2 °F 71% 30.10 in 10.0 mi Calm Calm - N/A   Clear
8:13 AM 53.6 °F - 39.2 °F 58% 30.10 in 10.0 mi Calm Calm - N/A   Clear
8:33 AM 55.4 °F - 37.4 °F 51% 30.10 in 10.0 mi SW 3.5 mph - N/A   Clear
8:52 AM 55.4 °F - 37.4 °F 51% 30.10 in 10.0 mi WSW 3.5 mph - N/A   Clear
9:13 AM 57.2 °F - 35.6 °F 44% 30.10 in 10.0 mi SW 3.5 mph - N/A   Clear
9:33 AM 60.8 °F - 35.6 °F 39% 30.10 in 10.0 mi WSW 3.5 mph - N/A   Clear
9:52 AM 62.6 °F - 35.6 °F 37% 30.09 in 10.0 mi SW 3.5 mph - N/A   Clear
10:13 AM 64.4 °F - 35.6 °F 34% 30.09 in 10.0 mi SW 4.6 mph - N/A   Clear
10:33 AM 66.2 °F - 33.8 °F 30% 30.09 in 10.0 mi SW 3.5 mph - N/A   Clear
10:52 AM 66.2 °F - 33.8 °F 30% 30.08 in 10.0 mi WSW 4.6 mph - N/A   Clear
11:13 AM 66.2 °F - 33.8 °F 30% 30.08 in 10.0 mi WSW 5.8 mph - N/A   Clear
11:33 AM 68.0 °F - 30.2 °F 24% 30.08 in 10.0 mi SSW 5.8 mph - N/A   Clear
11:52 AM 69.8 °F - 30.2 °F 23% 30.07 in 10.0 mi SW 4.6 mph - N/A   Clear
12:13 PM 69.8 °F - 30.2 °F 23% 30.07 in 10.0 mi South 4.6 mph - N/A   Clear
12:32 PM 69.8 °F - 30.2 °F 23% 30.06 in 10.0 mi SSW 4.6 mph - N/A   Clear
12:53 PM 71.6 °F - 30.2 °F 22% 30.05 in 10.0 mi South 4.6 mph - N/A   Clear
1:13 PM 71.6 °F - 30.2 °F 22% 30.04 in 10.0 mi SSE 5.8 mph - N/A   Clear
1:32 PM 71.6 °F - 30.2 °F 22% 30.03 in 10.0 mi SSE 4.6 mph - N/A   Clear
1:53 PM 71.6 °F - 28.4 °F 20% 30.02 in 10.0 mi SW 5.8 mph - N/A   Clear
2:13 PM 73.4 °F - 30.2 °F 20% 30.01 in 10.0 mi South 4.6 mph - N/A   Clear
2:32 PM 73.4 °F - 30.2 °F 20% 30.01 in 10.0 mi South 5.8 mph - N/A   Clear
2:53 PM 73.4 °F - 28.4 °F 19% 30.00 in 10.0 mi South 5.8 mph - N/A   Clear
3:13 PM 73.4 °F - 28.4 °F 19% 29.99 in 10.0 mi South 3.5 mph - N/A   Clear
3:32 PM 73.4 °F - 28.4 °F 19% 29.98 in 10.0 mi SW 4.6 mph - N/A   Clear
3:53 PM 73.4 °F - 28.4 °F 19% 29.97 in 10.0 mi Calm Calm - N/A   Clear
4:13 PM 73.4 °F - 28.4 °F 19% 29.96 in 10.0 mi SE 11.5 mph - N/A   Clear
4:32 PM 73.4 °F - 28.4 °F 19% 29.96 in 10.0 mi SSE 5.8 mph - N/A   Clear
4:53 PM 75.2 °F - 28.4 °F 18% 29.95 in 10.0 mi SSE 6.9 mph - N/A   Clear
5:13 PM 73.4 °F - 28.4 °F 19% 29.94 in 10.0 mi SSE 3.5 mph - N/A   Clear
5:33 PM 73.4 °F - 28.4 °F 19% 29.93 in 10.0 mi SE 4.6 mph - N/A   Clear
5:53 PM 73.4 °F - 28.4 °F 19% 29.93 in 10.0 mi South 3.5 mph - N/A   Clear
6:13 PM 73.4 °F - 28.4 °F 19% 29.93 in 10.0 mi SSE 3.5 mph - N/A   Clear
6:33 PM 73.4 °F - 28.4 °F 19% 29.92 in 10.0 mi Calm Calm - N/A   Clear
6:53 PM 71.6 °F - 28.4 °F 20% 29.91 in 10.0 mi Calm Calm - N/A   Clear
7:13 PM 71.6 °F - 28.4 °F 20% 29.91 in 10.0 mi SSE 3.5 mph - N/A   Clear
7:33 PM 69.8 °F - 30.2 °F 23% 29.90 in 10.0 mi Calm Calm - N/A   Clear
7:53 PM 66.2 °F - 30.2 °F 26% 29.90 in 10.0 mi South 3.5 mph - N/A   Clear
8:13 PM 66.2 °F - 30.2 °F 26% 29.90 in 10.0 mi SSE 3.5 mph - N/A   Clear
8:32 PM 64.4 °F - 30.2 °F 28% 29.90 in 10.0 mi Calm Calm - N/A   Clear
8:53 PM 62.6 °F - 30.2 °F 30% 29.89 in 10.0 mi SSE 3.5 mph - N/A   Clear
9:13 PM 57.2 °F - 33.8 °F 41% 29.90 in 10.0 mi Calm Calm - N/A   Clear
9:32 PM 57.2 °F - 33.8 °F 41% 29.90 in 10.0 mi Calm Calm - N/A   Clear
9:53 PM 55.4 °F - 35.6 °F 47% 29.90 in 10.0 mi SSE 3.5 mph - N/A   Clear
10:13 PM 60.8 °F - 33.8 °F 36% 29.89 in 10.0 mi SSE 3.5 mph - N/A   Clear
10:32 PM 60.8 °F - 37.4 °F 42% 29.88 in 10.0 mi SSE 5.8 mph - N/A   Clear
10:53 PM 57.2 °F - 42.8 °F 59% 29.87 in 10.0 mi SSE 3.5 mph - N/A   Clear
11:13 PM 57.2 °F - 44.6 °F 63% 29.87 in 10.0 mi SSE 4.6 mph - N/A   Clear
11:32 PM 55.4 °F - 44.6 °F 67% 29.86 in 10.0 mi South 4.6 mph - N/A   Clear
11:53 PM 57.2 °F - 44.6 °F 63% 29.86 in 10.0 mi SSE 3.5 mph - N/A   Clear